Wind_Speed
15 15 14 13 13 13 12 11 10 10 10 10 9 9 9 8 7 7 7 7 6 6 5 5 4 4 4 4 4 4 4 5 5 6 6 7 7 8 9 9 9 10 10
17 17 16 15 15 14 14 13 12 11 11 11 11 11 11 10 9 9 9 8 8 7 7 6 6 6 6 6 5 6 6 6 6 7 7 7 8 9 9 10 10 10 11
18 19 18 17 17 16 15 15 14 13 12 12 12 12 12 12 11 11 10 10 10 9 8 8 7 7 7 7 7 7 7 7 7 8 8 8 9 10 10 11 11 12 12
20 20 20 19 18 17 17 17 16 15 14 13 13 13 13 13 12 12 12 12 12 11 10 10 9 9 9 9 9 9 9 9 9 9 10 10 10 11 11 12 12 13 14
22 21 21 21 20 19 18 18 17 16 16 15 15 15 14 14 14 13 13 13 13 13 13 12 11 10 10 10 11 11 11 11 11 11 11 12 12 12 13 14 14 14 15
24 23 22 21 21 20 20 19 19 18 17 16 16 16 16 16 16 15 14 14 14 14 14 14 13 13 13 12 13 13 13 13 13 13 13 13 13 14 14 15 15 16 16
25 25 24 23 23 22 21 21 20 20 19 18 18 18 18 18 18 17 17 16 16 16 16 16 15 15 15 15 15 14 15 15 16 15 15 15 15 16 16 17 17 17 17
27 26 26 25 25 24 23 22 22 22 21 20 20 20 20 20 20 20 19 19 18 18 18 18 17 17 17 17 17 17 17 17 17 17 17 17 17 17 18 18 18 19 19
29 28 27 27 26 26 25 24 24 23 23 23 22 21 21 21 21 22 21 21 21 20 20 20 20 20 19 19 19 19 18 18 18 18 18 19 19 20 20 20 20 21 21
31 30 29 28 28 27 26 26 26 26 26 25 24 23 23 23 23 23 23 23 23 23 22 22 22 22 22 21 21 20 20 19 20 19 20 20 21 21 21 22 22 23 23
32 31 31 30 30 30 29 28 28 28 28 27 27 26 25 24 24 24 25 25 25 25 24 24 24 24 24 24 23 23 23 22 22 22 22 23 23 23 23 24 24 24 24
34 33 32 31 31 31 31 30 30 30 29 29 29 28 28 27 26 26 27 27 27 27 27 27 26 27 27 26 26 25 25 26 26 25 25 25 25 25 25 25 25 26 26
35 35 34 33 33 32 32 32 31 31 31 30 30 30 30 30 29 29 29 29 29 29 29 29 29 29 29 28 28 28 28 28 28 28 27 27 27 27 27 27 27 28 28
35 36 36 35 35 34 33 33 33 33 33 32 32 32 32 32 31 31 31 31 31 31 30 30 31 31 31 31 31 31 31 30 30 30 29 28 28 29 29 29 29 29 29
36 36 37 36 36 36 35 34 34 34 34 34 34 33 34 33 33 32 32 33 33 33 33 32 32 32 32 32 32 33 33 32 32 32 31 31 31 31 30 30 30 30 30
36 37 37 37 37 36 36 36 36 36 36 35 35 35 35 34 34 34 34 34 35 34 34 33 34 33 33 33 33 33 33 34 34 34 33 33 33 33 32 32 32 32 32
36 37 37 38 38 37 37 37 37 37 37 37 36 36 36 36 36 36 36 35 35 34 34 35 36 35 35 34 34 34 33 33 33 34 34 34 34 34 34 33 33 33 33
37 37 38 39 39 39 38 38 38 38 39 39 38 37 37 37 37 37 37 36 36 35 36 36 36 36 36 35 35 35 35 35 35 35 35 36 35 35 34 34 34 35 35
39 39 38 39 40 40 40 40 40 40 39 39 39 39 38 37 38 38 37 37 37 36 37 37 37 37 37 37 37 37 37 36 36 36 36 36 36 36 36 36 37 37 37
40 41 41 40 41 42 42 42 42 41 40 39 39 40 40 39 39 38 39 38 38 37 37 37 38 38 38 39 38 38 38 38 37 36 36 36 36 37 37 37 38 38 38
42 43 42 42 41 41 42 43 43 42 42 41 41 41 41 41 41 41 41 40 38 39 38 39 40 40 39 39 39 38 38 38 38 38 38 37 38 38 39 38 39 39 39
44 45 44 45 44 44 43 43 44 44 43 42 43 43 42 42 42 42 42 40 40 40 39 39 40 40 40 40 40 39 39 39 38 39 39 39 39 40 40 40 40 40 40
44 45 46 45 46 46 44 44 44 45 45 45 44 44 44 45 44 43 42 41 41 42 41 40 40 40 40 40 40 40 40 40 40 40 41 41 41 41 41 41 41 41 41
44 46 46 46 47 47 47 47 46 46 45 45 45 44 44 44 44 44 42 42 42 42 42 42 42 42 42 41 41 42 42 42 41 40 41 41 41 41 41 42 42 43 43
45 45 46 47 47 47 47 48 48 47 46 46 46 45 45 45 45 44 43 42 42 42 42 42 43 43 43 43 43 43 44 44 43 42 42 42 42 42 43 43 43 43 43
44 45 46 47 48 48 48 49 49 48 47 47 47 47 46 46 46 44 43 43 44 44 44 44 43 43 43 43 43 42 43 43 44 45 44 44 44 44 44 44 44 43 42
Wind_Direction
238 236 235 236 237 240 243 244 245 246 245 244 245 245 245 244 240 241 240 240 241 244 245 241 245 257 266 276 290 306 315 322 327 330 331 330 328 328 326 325 323 322 320
240 239 237 238 238 241 245 246 247 249 249 249 248 248 246 245 242 244 247 247 246 247 251 248 253 259 265 272 280 291 302 312 312 317 322 322 322 321 320 319 318 317 315
240 240 238 240 241 242 245 247 248 250 252 253 251 248 246 247 247 248 250 251 249 249 252 253 254 260 265 271 277 284 291 300 306 308 311 313 315 316 316 316 316 315 313
241 241 239 240 242 243 244 247 249 251 253 255 253 249 248 249 250 251 252 253 252 250 251 255 258 264 268 272 276 280 286 291 299 303 303 304 307 311 312 312 311 312 311
241 242 241 240 241 243 244 246 250 252 254 255 253 251 250 250 250 252 255 254 253 253 253 255 258 264 270 274 276 280 284 290 293 298 299 300 301 304 307 308 309 309 310
240 241 241 242 242 243 245 248 251 253 254 255 254 252 252 251 251 252 255 256 255 255 256 257 259 262 268 273 276 279 283 287 290 292 295 297 299 300 303 305 307 308 308
240 240 240 241 243 244 246 249 251 252 253 254 254 253 252 252 252 253 255 256 257 257 258 259 262 263 266 271 277 280 282 285 287 288 291 294 295 297 300 302 304 305 304
239 240 240 241 243 244 246 248 250 251 252 253 254 254 253 253 254 254 256 258 260 260 260 260 263 265 267 271 275 279 281 284 285 287 289 291 293 295 297 299 301 302 302
239 241 241 243 243 244 246 247 248 250 251 253 254 254 253 255 257 257 257 259 261 262 262 261 263 265 268 271 274 277 280 281 284 287 289 290 291 293 296 297 298 299 300
241 241 242 243 245 245 246 247 248 250 250 253 254 255 256 257 258 259 260 261 261 263 263 262 263 266 269 271 273 275 278 282 283 286 289 290 291 292 294 296 297 297 297
240 242 243 243 245 246 247 248 250 250 251 253 255 256 258 259 260 261 263 263 263 263 265 264 265 267 269 271 273 275 276 278 282 285 287 289 290 292 293 294 296 297 298
241 242 244 244 246 248 248 249 251 253 253 255 255 256 258 259 261 262 264 265 265 265 265 267 267 268 269 271 273 275 276 277 280 283 285 288 290 291 292 293 295 296 298
243 243 244 245 247 248 249 249 251 253 253 254 255 257 259 260 261 263 263 264 265 266 266 267 268 268 270 271 273 275 276 278 280 282 285 287 289 290 291 292 293 295 296
244 245 245 246 247 248 249 250 251 252 253 253 255 256 258 261 261 262 262 264 265 265 266 267 269 268 269 271 273 275 276 277 279 281 282 285 287 289 290 290 292 294 294
246 246 247 246 247 248 249 250 251 251 253 255 255 256 258 260 262 262 263 264 265 265 266 267 268 269 270 271 273 274 275 276 277 279 281 283 284 287 288 288 289 291 292
247 248 248 247 247 248 250 251 251 252 254 255 256 257 258 261 262 262 264 264 264 265 266 266 267 269 271 273 274 275 275 275 276 278 279 282 283 285 287 286 288 289 291
247 248 249 248 247 247 250 251 253 254 254 255 257 258 260 262 264 264 264 264 265 265 266 267 267 269 271 272 273 275 275 275 276 278 280 282 283 285 286 286 287 289 290
246 247 248 248 248 248 249 251 252 255 254 255 256 259 262 263 263 264 264 265 264 264 266 267 269 269 269 271 272 273 275 276 277 278 280 282 283 284 285 285 286 287 288
246 247 248 248 249 249 249 251 252 254 255 257 258 261 263 263 263 263 264 265 264 264 266 268 268 269 269 270 271 273 274 276 277 278 280 281 282 283 284 284 285 287 287
248 248 248 249 250 249 249 250 252 253 255 258 260 263 264 264 263 263 264 264 264 265 267 268 269 270 271 271 272 273 275 276 278 280 280 281 282 283 284 285 286 288 288
250 249 248 249 250 249 250 251 252 254 256 257 259 262 263 264 264 264 264 264 264 264 266 268 269 270 271 272 272 273 275 276 278 279 280 281 282 283 284 285 286 288 289
250 250 250 250 250 251 252 252 253 253 256 258 261 262 263 265 264 264 265 263 264 266 266 268 270 270 270 272 272 272 273 275 276 278 280 281 281 283 284 285 286 286 288
251 251 251 252 251 251 251 253 253 255 256 258 261 263 264 265 264 264 266 265 265 265 265 268 270 271 270 272 273 274 274 274 275 277 280 281 281 282 283 284 284 286 287
253 253 253 252 252 251 251 253 255 256 257 259 261 264 265 264 265 265 266 266 266 266 266 268 270 271 270 272 275 276 276 277 277 277 279 281 282 282 283 284 284 285 287
255 254 252 251 251 251 252 253 255 255 257 259 261 264 264 264 265 264 265 266 266 267 267 269 270 271 273 274 275 276 277 278 280 280 280 281 282 283 284 284 285 285 286
256 255 253 252 252 252 253 254 255 255 255 257 260 263 264 263 264 264 264 266 266 266 266 268 269 271 273 274 275 275 276 278 281 283 282 282 282 282 283 284 284 286 286
Height
5840 5841 5842 5843 5845 5846 5846 5847 5848 5849 5849 5850 5850 5850 5851 5851 5852 5852 5853 5853 5853 5854 5854 5853 5853 5853 5853 5853 5853 5852 5852 5852 5852 5851 5851 5850 5850 5849 5848 5848 5847 5846 5845
5837 5839 5840 5841 5842 5843 5844 5845 5846 5847 5847 5848 5848 5849 5849 5850 5850 5851 5851 5852 5852 5852 5853 5852 5852 5852 5852 5852 5852 5852 5852 5851 5851 5850 5850 5849 5849 5848 5847 5846 5846 5845 5844
5834 5835 5837 5838 5840 5841 5842 5843 5844 5844 5845 5845 5846 5847 5847 5848 5849 5849 5850 5850 5851 5851 5851 5851 5851 5851 5851 5851 5851 5851 5851 5850 5850 5849 5849 5848 5847 5847 5846 5845 5844 5843 5842
5830 5832 5834 5835 5836 5838 5839 5840 5841 5842 5842 5843 5843 5844 5845 5846 5847 5847 5848 5848 5849 5849 5850 5850 5850 5850 5850 5850 5850 5849 5849 5849 5849 5848 5847 5847 5846 5845 5844 5843 5842 5841 5840
5827 5828 5830 5832 5833 5835 5836 5837 5838 5839 5840 5840 5841 5842 5842 5843 5844 5845 5846 5846 5847 5847 5848 5848 5848 5848 5848 5848 5848 5847 5847 5847 5847 5846 5845 5845 5844 5843 5842 5841 5840 5839 5837
5822 5824 5826 5828 5830 5831 5833 5834 5835 5836 5837 5837 5838 5838 5840 5841 5842 5842 5843 5844 5844 5845 5845 5846 5846 5846 5846 5846 5846 5845 5845 5845 5844 5844 5843 5842 5842 5840 5839 5838 5837 5836 5834
5818 5820 5822 5824 5826 5828 5829 5830 5831 5832 5833 5834 5835 5835 5836 5837 5839 5840 5840 5841 5841 5842 5842 5843 5843 5843 5843 5843 5843 5843 5843 5842 5841 5841 5840 5840 5839 5838 5836 5835 5834 5833 5831
5813 5815 5817 5819 5821 5823 5825 5826 5827 5828 5829 5830 5831 5832 5833 5834 5835 5836 5837 5838 5838 5839 5839 5840 5840 5840 5840 5840 5840 5840 5840 5839 5838 5838 5837 5836 5835 5834 5833 5832 5830 5829 5828
5807 5810 5812 5814 5816 5818 5820 5821 5822 5824 5825 5826 5827 5828 5829 5830 5831 5832 5833 5834 5835 5835 5836 5836 5837 5837 5837 5837 5837 5836 5836 5836 5835 5835 5834 5833 5831 5830 5829 5828 5827 5825 5824
5802 5804 5806 5809 5811 5813 5814 5816 5817 5819 5820 5821 5822 5823 5824 5826 5827 5828 5829 5830 5831 5831 5832 5832 5833 5833 5833 5833 5833 5833 5833 5832 5832 5831 5830 5829 5827 5826 5825 5824 5822 5821 5819
5796 5798 5800 5803 5805 5807 5809 5810 5812 5813 5814 5816 5817 5818 5819 5821 5822 5823 5824 5825 5826 5827 5827 5828 5828 5828 5829 5829 5829 5829 5828 5828 5828 5827 5826 5824 5823 5822 5821 5819 5818 5816 5814
5790 5792 5794 5796 5799 5801 5803 5804 5806 5807 5809 5810 5812 5813 5814 5816 5817 5818 5819 5820 5821 5822 5822 5823 5823 5824 5824 5824 5824 5824 5823 5823 5823 5822 5821 5820 5818 5817 5816 5814 5813 5811 5809
5783 5785 5787 5790 5792 5794 5796 5798 5800 5801 5803 5804 5806 5808 5809 5810 5811 5812 5814 5815 5815 5816 5817 5817 5818 5818 5818 5818 5818 5818 5818 5818 5817 5816 5815 5814 5813 5812 5810 5809 5807 5806 5804
5776 5778 5780 5783 5785 5787 5789 5791 5793 5795 5796 5798 5800 5801 5803 5804 5805 5806 5807 5808 5809 5810 5810 5811 5811 5812 5812 5812 5812 5812 5812 5811 5811 5810 5810 5808 5807 5806 5804 5803 5801 5799 5797
5768 5771 5773 5776 5778 5780 5782 5784 5786 5788 5790 5791 5793 5795 5796 5798 5799 5800 5800 5801 5802 5802 5803 5804 5805 5805 5805 5805 5805 5805 5805 5804 5804 5804 5803 5802 5801 5799 5798 5796 5795 5793 5791
5761 5763 5765 5768 5770 5773 5775 5777 5779 5781 5782 5784 5786 5787 5789 5790 5791 5792 5793 5793 5794 5795 5796 5796 5797 5797 5798 5798 5798 5797 5797 5797 5796 5796 5796 5795 5794 5792 5791 5789 5788 5786 5784
5753 5755 5757 5759 5762 5765 5767 5769 5771 5773 5775 5777 5778 5780 5781 5782 5783 5783 5784 5785 5786 5787 5788 5788 5788 5789 5790 5790 5790 5789 5789 5789 5788 5788 5788 5787 5786 5785 5783 5782 5780 5778 5776
5745 5747 5749 5751 5754 5756 5759 5761 5763 5765 5767 5769 5771 5772 5773 5774 5774 5775 5775 5776 5777 5778 5779 5780 5780 5781 5781 5781 5781 5781 5781 5781 5780 5780 5779 5779 5778 5777 5775 5773 5772 5770 5768
5736 5738 5741 5743 5745 5748 5750 5752 5754 5756 5758 5760 5762 5764 5764 5765 5765 5766 5767 5768 5769 5770 5771 5771 5772 5772 5773 5773 5773 5773 5773 5772 5772 5771 5770 5770 5769 5768 5766 5765 5763 5761 5759
5727 5730 5732 5734 5736 5739 5741 5743 5745 5748 5750 5752 5753 5754 5755 5756 5756 5757 5758 5759 5759 5761 5762 5763 5763 5763 5764 5764 5764 5764 5764 5763 5763 5762 5761 5761 5760 5759 5757 5756 5754 5752 5750
5718 5720 5723 5725 5727 5729 5731 5734 5736 5739 5741 5743 5744 5745 5746 5747 5747 5748 5749 5750 5750 5752 5753 5753 5754 5754 5754 5754 5754 5755 5755 5754 5754 5753 5752 5751 5750 5749 5747 5746 5744 5742 5739
5707 5710 5713 5716 5718 5720 5723 5725 5728 5730 5732 5734 5735 5736 5736 5737 5738 5738 5739 5740 5741 5742 5743 5744 5744 5745 5745 5745 5745 5745 5745 5746 5745 5744 5743 5741 5740 5739 5737 5735 5733 5731 5729
5697 5699 5702 5705 5708 5711 5713 5715 5718 5720 5722 5724 5725 5726 5726 5727 5728 5729 5729 5730 5731 5732 5733 5733 5734 5734 5735 5735 5734 5735 5735 5735 5736 5735 5733 5731 5730 5728 5727 5725 5723 5721 5719
5685 5688 5690 5693 5696 5700 5702 5705 5707 5709 5711 5713 5715 5716 5716 5717 5718 5719 5719 5720 5721 5722 5723 5723 5724 5724 5725 5725 5725 5724 5724 5724 5724 5724 5724 5721 5719 5717 5716 5714 5712 5710 5708
5673 5675 5677 5680 5684 5687 5691 5694 5696 5698 5701 5702 5704 5705 5706 5707 5707 5708 5709 5709 5710 5711 5712 5713 5713 5714 5715 5715 5715 5715 5714 5713 5712 5712 5712 5711 5709 5706 5704 5703 5701 5699 5697
5660 5662 5664 5667 5671 5675 5679 5681 5684 5687 5689 5691 5693 5694 5695 5696 5697 5697 5698 5699 5700 5701 5702 5702 5703 5704 5704 5704 5704 5704 5703 5703 5702 5700 5700 5699 5697 5696 5693 5691 5690 5688 5686